Location: Newport
(44.6370°N, 124.0520°W)
Time: 17:01:54
(UTC-07:00)

Vanguard 1 - Pass Details

Date: 23 July 2018
Orbit: 650 x 3833 km, 34.3° (Epoch: 17 August)

Event Time Altitude Azimuth Distance (km) Brightness Sun altitude
Rises 21:33:52 0° 219° (SW) 5,338 13.9 -7.1°
Reaches altitude 10° 21:39:13 10° 203° (SSW) 3,703 12.9 -7.8°
Maximum altitude 21:44:44 18° 164° (SSE) 2,486 11.7 -8.6°
Enters shadow 21:48:31 11° 125° (SE) 2,565 11.5 -9.1°
